Regional Weather Roundup
Issued by NWS

Home | Current Version | Previous Version | Graphics & Text | Print | Product List | Glossary On
Versions: 1 2 3 4 5 6 7 8 9 10 11 12 13 14 15 16 17 18 19 20 21 22 23 24 25 26 27 28 29 30 31 32 33 34 35 36 37 38 39 40 41 42 43 44 45 46 47 48 49 50
000
ASUS43 KFSD 211002
RWRSD

WEATHER ROUNDUP FOR SOUTH DAKOTA
NATIONAL WEATHER SERVICE SIOUX FALLS SD
500 AM CDT THU AUG 21 2014

NOTE: "FAIR" INDICATES FEW OR NO CLOUDS BELOW 12,000 FEET WITH NO
SIGNIFICANT WEATHER AND/OR OBSTRUCTIONS TO VISIBILITY.


SDZ001>005-009-010-012>017-211100-
NORTHWEST AND NORTH CENTRAL SOUTH DAKOTA

CITY           SKY/WX    TMP DP  RH WIND       PRES   REMARKS
BUFFALO          N/A     59  55  87 NW7       29.80S
FAITH            N/A     60  59  96 NW9       29.83R
MOBRIDGE       CLEAR     64  63  96 NW10      29.72R
$$

SDZ012>016-024>037-041>051-057-063-072>074-211100-
SOUTHWEST AND SOUTH CENTRAL SOUTH DAKOTA

CITY           SKY/WX    TMP DP  RH WIND       PRES   REMARKS
RAPID CTY ARPT LGT RAIN  64  60  87 SW7       29.90R
PIERRE         CLEAR     63  63 100 NW8       29.73R
CUSTER         CLOUDY    62  50  64 W3        30.02R
ELLSWORTH AFB  CLOUDY    65  60  83 S9        29.90R
PHILIP         CLEAR     62  59  90 W9        29.81R
PINE RIDGE     MOCLDY    57  56  96 NE3       29.89R
WINNER         FAIR      69  63  81 W13       29.75R
$$

SDZ004>011-016>023-039-040-211100-
NORTHEAST SOUTH DAKOTA

CITY           SKY/WX    TMP DP  RH WIND       PRES   REMARKS
ABERDEEN       MOCLDY    65  65 100 W3        29.70R
WATERTOWN      PTCLDY    65  64  97 E3        29.70S
SISSETON         N/A     70  69  97 SE13G22   29.69R
$$

SDZ017-020-022-023-036>040-048>070-211100-
SOUTHEAST SOUTH DAKOTA

CITY           SKY/WX    TMP DP  RH WIND       PRES   REMARKS
SIOUX FALLS    PTCLDY    76  70  82 S10       29.66F
HURON          CLEAR     69  65  86 E6        29.65F
CHAMBERLAIN    CLOUDY    71  71 100 CALM      29.71R FOG
MITCHELL       CLEAR     72  71  97 E3        29.67R FOG
YANKTON        MOCLDY    77  72  83 SW12      29.69R
$$

ABBREVIATIONS USED IN REMARKS
   TC - TEMPERATURE IN CELSIUS
  WCI - WIND CHILL INDEX
   HX - HEAT INDEX
  VSB - VISIBILITY




USA.gov is the U.S. government's official web portal to all federal, state and local government web resources and services.